Wind_Speed
24 22 21 22 25 23 23 24 23 24 24 22 19 21 21 19 20 20 19 22 23 23 26 23 22 24 24 26 25 25 20 18 18 19 17 16 16 16
21 20 22 22 22 20 20 21 21 22 20 18 21 19 18 16 18 20 18 21 24 24 24 21 21 21 23 21 19 18 18 17 16 15 15 16 16 17
17 16 16 17 14 14 14 16 18 19 18 19 19 17 16 13 16 19 21 22 22 21 19 19 19 19 18 17 17 18 18 16 14 14 15 15 16 15
13 11 12 11 11 12 13 13 14 13 14 14 14 14 12 12 13 14 16 16 15 16 17 16 17 17 18 18 19 17 15 14 14 15 15 16 16 15
7 8 8 7 8 10 9 8 8 8 8 9 10 9 9 10 11 12 13 12 12 13 13 14 14 17 17 16 16 15 15 16 17 18 18 19 19 18
7 7 6 5 4 3 3 4 6 7 7 7 7 7 8 9 9 9 9 11 13 13 14 15 16 14 13 13 15 15 16 17 18 18 18 19 18 17
4 3 2 2 2 2 3 5 6 7 8 8 7 7 7 7 8 10 12 12 13 14 15 14 12 13 13 14 15 16 16 16 17 19 20 19 18 18
3 1 0 1 2 3 5 6 7 7 8 8 8 7 8 9 10 11 11 13 12 10 10 9 14 13 14 15 16 17 18 19 20 21 22 21 19 19
2 1 2 4 5 6 6 6 7 8 7 7 8 9 10 11 12 13 13 12 10 10 13 10 11 12 14 16 19 20 19 19 18 18 20 24 24 24
2 3 4 5 7 7 8 8 9 9 10 10 9 9 10 11 11 12 10 10 10 11 13 14 12 13 15 18 20 17 12 11 15 22 22 23 25 27
4 5 6 8 9 8 9 9 9 9 10 11 10 9 9 9 7 9 8 11 12 10 13 17 13 19 18 12 9 5 9 17 17 20 22 24 26 27
5 6 7 8 9 9 9 8 8 9 9 9 9 8 7 7 8 9 11 12 14 13 10 14 18 18 12 5 3 16 17 12 16 19 20 22 25 26
5 6 8 8 8 8 8 7 7 6 7 7 7 7 7 9 10 11 13 15 17 18 16 18 20 18 17 23 23 23 19 22 19 17 19 19 17 20
5 6 7 7 7 8 7 7 7 6 6 6 6 7 9 11 13 14 16 18 19 19 18 16 21 20 20 25 29 26 27 27 23 18 12 21 20 20
6 6 7 6 7 7 7 7 6 7 7 8 9 11 12 14 15 16 17 18 20 19 19 18 20 20 22 26 32 31 32 29 20 18 22 21 22 22
7 7 8 7 7 7 7 8 8 9 10 11 12 13 14 15 15 16 17 17 19 15 11 13 17 22 25 27 29 32 29 29 26 23 24 25 23 22
7 8 8 8 8 9 9 9 10 11 13 14 15 15 15 15 15 14 15 16 17 17 15 11 13 16 21 25 29 29 27 24 23 24 27 29 26 23
8 9 10 10 10 11 11 11 12 14 14 15 15 15 15 15 15 12 14 16 18 18 19 17 16 19 22 24 21 20 23 22 24 25 26 28 30 26
10 10 11 11 12 12 13 13 14 15 16 16 16 15 15 16 15 15 14 17 19 20 19 17 15 18 24 28 29 22 19 27 27 27 26 26 30 29
11 11 12 13 13 14 14 16 17 17 17 18 17 16 16 17 17 16 16 19 21 22 21 17 16 19 23 25 28 30 24 26 26 28 27 27 30 30
13 13 14 15 16 16 16 18 19 20 20 20 19 18 18 19 19 18 19 20 21 23 25 23 19 19 22 23 29 31 27 25 25 25 28 29 33 35
15 16 16 17 17 17 19 20 21 22 22 22 22 21 20 19 21 21 22 23 23 24 26 25 22 20 22 25 29 31 32 30 25 26 26 27 28 29
16 17 17 18 18 20 21 22 23 24 23 23 23 22 21 22 22 23 24 23 24 25 25 27 25 22 24 26 28 31 33 32 33 34 34 31 30 28
Wind_Direction
267 267 265 264 265 267 264 274 278 285 288 289 292 295 296 291 277 276 266 252 269 260 270 274 269 268 264 260 259 262 267 272 278 280 285 286 286 287
268 264 262 265 271 266 276 276 275 276 276 287 291 294 292 283 275 272 265 263 263 264 268 268 263 258 264 270 270 274 277 279 281 282 283 284 281 276
268 268 271 276 274 280 278 280 281 280 278 282 286 291 289 273 262 261 260 263 263 265 265 267 267 269 271 272 272 273 279 279 280 280 279 275 280 279
274 278 280 281 279 274 268 270 274 278 278 281 285 283 276 262 249 250 255 259 263 268 266 266 270 271 272 276 279 279 279 275 270 274 281 280 278 276
277 275 266 268 273 277 282 278 283 285 282 277 272 268 262 250 247 250 253 259 266 266 267 271 273 272 276 274 275 276 281 288 290 289 289 287 285 283
253 249 251 255 263 278 295 294 292 286 283 277 269 263 259 258 259 265 271 271 274 274 275 277 274 274 273 275 279 281 282 285 287 287 285 286 287 285
210 205 209 266 287 315 303 294 294 292 289 283 273 268 269 266 263 266 270 272 272 274 272 262 252 269 271 273 277 281 285 285 285 287 286 284 282 280
155 136 292 290 308 315 305 296 297 287 276 270 267 267 268 271 276 275 277 284 286 268 257 252 267 272 273 280 279 282 286 287 286 285 282 282 282 281
108 21 335 313 310 308 307 300 291 290 284 280 275 275 275 275 276 278 281 280 277 280 287 280 278 275 274 277 282 288 284 275 269 272 282 287 286 287
355 332 318 310 308 309 299 294 292 291 291 293 290 286 281 275 274 276 278 282 287 290 292 295 292 279 287 289 285 279 266 269 278 285 288 286 283 282
321 318 313 308 306 304 299 296 292 289 290 296 294 288 287 285 281 284 285 296 298 296 293 295 297 303 308 296 282 241 283 297 287 285 287 286 285 285
321 315 309 308 309 306 305 299 291 285 283 285 287 287 284 276 279 282 289 294 298 305 296 298 301 319 322 315 272 298 304 293 294 291 290 290 292 291
321 318 314 308 300 299 300 299 292 292 291 289 283 277 278 281 284 286 288 290 290 287 289 294 298 309 305 306 309 319 316 319 314 304 298 296 297 295
325 315 311 308 308 306 304 297 292 298 294 291 289 288 287 287 286 287 286 287 289 288 287 280 285 295 299 301 302 313 310 314 319 313 302 302 293 290
320 316 313 305 299 297 292 283 291 291 291 291 293 292 290 288 286 286 286 288 290 292 290 283 280 286 286 291 297 305 309 315 318 317 314 306 298 292
325 321 318 310 299 297 291 289 286 285 287 290 292 292 293 292 291 291 292 293 292 299 300 295 286 281 286 288 292 296 304 303 312 317 312 307 302 300
316 311 308 301 294 289 284 278 277 280 286 291 293 293 296 299 300 300 299 298 299 305 302 297 291 280 280 288 291 297 303 302 313 317 313 310 308 306
309 301 297 292 289 284 278 273 275 280 287 290 291 295 298 298 298 295 295 295 301 307 307 308 303 297 294 291 295 300 301 310 321 320 317 314 311 311
302 298 296 291 287 281 276 274 276 281 286 288 290 294 296 297 299 300 301 299 301 304 305 305 304 309 309 306 310 309 307 313 315 310 309 312 313 316
295 295 294 292 290 285 280 279 281 285 289 289 290 290 291 294 297 298 299 300 304 306 306 306 312 311 306 304 302 305 314 313 317 313 313 315 317 322
289 291 290 291 290 287 284 282 284 287 287 289 290 289 290 289 293 297 298 300 304 308 305 307 311 307 307 305 299 307 314 316 316 315 320 321 320 317
286 289 288 290 289 287 286 285 285 286 288 288 289 288 287 284 287 291 296 300 302 305 306 309 310 304 301 302 302 308 314 317 316 317 319 315 311 293
286 288 288 288 290 289 289 288 288 288 288 290 289 288 286 285 285 288 293 298 300 302 308 311 310 305 304 307 308 309 314 317 322 323 320 322 319 316
Height
1515 1515 1515 1515 1514 1514 1514 1513 1513 1509 1509 1508 1508 1508 1508 1509 1509 1508 1511 1514 1511 1512 1517 1515 1516 1515 1514 1514 1514 1516 1514 1514 1514 1515 1515 1516 1516 1515
1509 1509 1509 1510 1508 1509 1509 1509 1508 1507 1505 1504 1504 1504 1504 1505 1504 1504 1506 1507 1509 1511 1509 1509 1510 1509 1508 1510 1511 1510 1509 1509 1509 1509 1511 1511 1511 1510
1504 1503 1503 1504 1503 1504 1504 1504 1504 1503 1501 1501 1501 1501 1501 1501 1502 1502 1502 1503 1503 1504 1504 1505 1506 1506 1505 1505 1505 1504 1504 1504 1504 1504 1505 1505 1505 1503
1499 1499 1499 1499 1499 1500 1499 1498 1499 1498 1497 1497 1497 1497 1498 1498 1498 1499 1499 1499 1499 1500 1500 1500 1500 1500 1500 1500 1500 1499 1499 1500 1498 1498 1498 1499 1498 1498
1495 1496 1496 1496 1496 1495 1495 1495 1495 1494 1494 1494 1494 1494 1495 1495 1495 1496 1497 1497 1497 1497 1497 1496 1496 1496 1496 1496 1495 1495 1494 1493 1493 1494 1493 1493 1492 1490
1494 1494 1494 1493 1494 1494 1493 1494 1493 1492 1492 1492 1492 1492 1493 1494 1494 1494 1494 1494 1494 1494 1493 1493 1492 1492 1492 1491 1491 1491 1490 1491 1491 1489 1488 1487 1486 1486
1493 1492 1493 1493 1493 1492 1492 1492 1492 1491 1491 1491 1491 1491 1491 1491 1492 1492 1492 1492 1492 1491 1490 1490 1489 1489 1488 1488 1488 1487 1486 1486 1485 1484 1483 1482 1481 1481
1492 1491 1491 1492 1491 1491 1491 1491 1491 1490 1490 1489 1489 1488 1489 1489 1490 1490 1490 1489 1489 1488 1487 1488 1486 1486 1484 1484 1483 1482 1482 1481 1480 1478 1477 1476 1476 1475
1491 1490 1490 1491 1491 1490 1490 1490 1489 1489 1489 1488 1488 1488 1487 1487 1487 1487 1488 1487 1487 1486 1484 1484 1483 1483 1482 1481 1479 1478 1476 1476 1475 1474 1473 1471 1469 1468
1490 1490 1489 1489 1490 1490 1489 1488 1488 1487 1486 1486 1486 1486 1486 1485 1485 1485 1486 1485 1485 1484 1482 1480 1481 1480 1479 1476 1474 1473 1472 1472 1471 1469 1466 1465 1463 1461
1489 1488 1488 1488 1488 1488 1487 1486 1486 1485 1484 1484 1484 1484 1483 1483 1483 1483 1484 1484 1483 1482 1481 1478 1477 1474 1473 1471 1469 1470 1470 1468 1465 1463 1461 1458 1456 1454
1487 1487 1487 1487 1486 1486 1485 1484 1483 1483 1483 1482 1482 1482 1482 1482 1482 1482 1482 1481 1481 1479 1478 1477 1475 1473 1469 1467 1468 1467 1465 1463 1461 1458 1455 1452 1449 1447
1486 1486 1485 1485 1484 1484 1483 1482 1481 1481 1480 1480 1480 1480 1480 1481 1480 1480 1479 1479 1478 1476 1476 1474 1471 1471 1469 1464 1460 1460 1457 1457 1454 1452 1450 1446 1444 1442
1485 1484 1483 1483 1482 1482 1481 1480 1479 1479 1478 1478 1478 1479 1479 1479 1478 1477 1476 1475 1474 1473 1472 1471 1468 1467 1465 1461 1457 1456 1452 1450 1448 1446 1444 1442 1439 1437
1483 1482 1482 1481 1481 1480 1479 1479 1478 1478 1478 1477 1477 1477 1476 1476 1475 1474 1473 1471 1469 1468 1467 1466 1464 1463 1461 1457 1452 1449 1445 1443 1442 1441 1438 1435 1432 1431
1481 1480 1480 1479 1479 1478 1477 1477 1477 1476 1476 1475 1475 1474 1473 1472 1471 1469 1468 1467 1465 1465 1464 1462 1460 1457 1455 1453 1449 1444 1443 1440 1437 1435 1431 1428 1426 1423
1480 1479 1478 1477 1477 1476 1476 1475 1474 1474 1473 1473 1472 1471 1469 1468 1466 1465 1463 1462 1460 1459 1459 1459 1456 1453 1450 1447 1442 1439 1437 1434 1432 1429 1425 1420 1418 1416
1478 1477 1476 1475 1474 1474 1473 1472 1471 1471 1470 1469 1468 1467 1465 1464 1462 1461 1460 1458 1456 1455 1454 1453 1451 1448 1444 1441 1438 1434 1431 1428 1426 1422 1419 1414 1409 1408
1476 1475 1474 1473 1472 1471 1470 1469 1468 1468 1466 1465 1464 1463 1462 1460 1459 1458 1456 1454 1452 1451 1449 1448 1446 1443 1438 1433 1430 1430 1425 1423 1419 1416 1413 1410 1403 1399
1474 1473 1471 1470 1468 1467 1466 1465 1465 1464 1462 1461 1459 1458 1457 1456 1454 1453 1452 1449 1447 1445 1443 1442 1441 1438 1434 1430 1424 1420 1421 1416 1414 1409 1405 1402 1397 1392
1471 1469 1468 1466 1465 1463 1462 1461 1460 1459 1458 1456 1455 1454 1453 1452 1450 1449 1447 1445 1442 1439 1436 1435 1435 1433 1428 1424 1419 1414 1413 1412 1409 1404 1399 1395 1389 1384
1467 1465 1464 1462 1461 1459 1458 1457 1455 1454 1453 1451 1450 1449 1448 1446 1444 1443 1441 1439 1437 1434 1431 1429 1428 1426 1423 1418 1413 1408 1404 1402 1400 1397 1394 1392 1387 1379
1462 1461 1459 1458 1456 1454 1453 1451 1449 1448 1447 1446 1444 1443 1442 1440 1440 1437 1435 1433 1431 1428 1426 1421 1420 1418 1414 1411 1407 1401 1398 1393 1389 1385 1383 1382 1379 1374